Flag for Israel Weather past 2 weeks in Jerusalem, Israel

Now
72 °F

Passing clouds.


Feels Like: 72 °F
Forecast: 66 / 81 °F
Wind: 6 mph from South

Location: Ben Gurion International Airport

Current Time: Jul 8, 2015 at 5:20:25 AM

Latest Report: Jul 8, 2015 at 4:50 AM


Visibility: N/A

Pressure: 29.80 "Hg (27.26 "Hg at 769m altitude)

Humidity: 78%

Dew point: 64 °F

Location of JerusalemLocation

Historic Weather in Jerusalem — Graph

°F

Jerusalem temperature yesterday

Maximum temperature yesterday: 84 °F (at 11:50 AM)
Minimum temperature yesterday: 73 °F (at 1:50 AM)
Average temperature yesterday: 78 °F

Past Weeks' High & Low Weather Summary

 TemperatureHumidityPressure
High91 °F (Jun 27, 1:20 PM)83% (Jun 27, 12:50 AM)30.09 "Hg (Jun 27, 12:50 AM)
Low68 °F (Jul 5, 4:50 AM)21% (Jun 27, 6:50 PM)29.59 "Hg (Jun 27, 9:20 PM)
Average78 °F64%29.86 "Hg
* Reported Jun 23 4:20 AM — Jul 8 4:20 AM, Jerusalem, Weather by CustomWeather, © 2015

Note: Actual official high and low records may vary slightly from our data, if they occured in-between our weather recording intervals... More about our weather records

Advertising

Jerusalem weather history for previous 24 hours

 ConditionsComfort  
Time TempWeatherWind HumidityBarometerVisibility
4:20 AM
Wed, Jul 8
72 °FPassing clouds.6 mph78%29.80 "HgN/A
3:50 AM73 °FPassing clouds.7 mph74%29.80 "HgN/A
3:20 AM72 °FPassing clouds.6 mph78%29.80 "HgN/A
2:20 AM73 °FPassing clouds.7 mph74%29.80 "HgN/A
1:50 AM73 °FPassing clouds.5 mph74%30.09 "HgN/A
1:20 AM73 °FPassing clouds.3 mph74%29.83 "HgN/A
12:20 AM73 °FPassing clouds.2 mph74%29.83 "HgN/A
11:50 PM
Tue, Jul 7
75 °FPassing clouds.3 mph69%29.83 "HgN/A
11:20 PM75 °FPassing clouds.3 mph69%29.83 "HgN/A
10:50 PM75 °FPassing clouds.3 mph69%29.83 "HgN/A
10:20 PM77 °FPassing clouds.5 mph65%29.86 "HgN/A
9:50 PM77 °FPassing clouds.5 mph65%29.86 "HgN/A
9:20 PM77 °FPassing clouds.6 mph69%29.83 "HgN/A
8:50 PM77 °FPassing clouds.6 mph69%29.83 "HgN/A
8:20 PM77 °FPassing clouds.6 mph69%29.83 "HgN/A
7:50 PM77 °FPassing clouds.7 mph65%29.83 "HgN/A
7:20 PM79 °FPassing clouds.8 mph65%29.83 "HgN/A
6:50 PM81 °FPassing clouds.9 mph58%29.83 "HgN/A
6:20 PM81 °FPassing clouds.9 mph62%29.83 "HgN/A
5:50 PM82 °FPassing clouds.12 mph58%29.83 "HgN/A
5:20 PM82 °FPassing clouds.10 mph55%29.83 "HgN/A
4:50 PM82 °FSunny.14 mph55%29.83 "Hg10 mi
4:20 PM84 °FPassing clouds.12 mph55%29.83 "HgN/A
3:50 PM82 °FPassing clouds.13 mph55%29.83 "HgN/A
3:20 PM82 °FPassing clouds.13 mph55%29.83 "HgN/A
2:50 PM84 °FPassing clouds.10 mph51%29.83 "HgN/A
2:20 PM84 °FPassing clouds.13 mph51%29.83 "HgN/A
1:50 PM84 °FPassing clouds.N/A55%29.83 "HgN/A
1:20 PM84 °FPassing clouds.12 mph55%29.86 "HgN/A
12:50 PM84 °FPassing clouds.12 mph51%29.86 "HgN/A
12:20 PM82 °FPassing clouds.10 mph58%29.86 "HgN/A
11:50 AM84 °FPassing clouds.10 mph51%29.86 "HgN/A
11:20 AM82 °FPassing clouds.7 mph58%29.86 "HgN/A
10:50 AM82 °FScattered clouds.6 mph58%29.86 "HgN/A
10:20 AM82 °FScattered clouds.8 mph58%29.86 "HgN/A
9:50 AM81 °FScattered clouds.12 mph62%29.86 "HgN/A
9:20 AM81 °FScattered clouds.7 mph58%29.86 "HgN/A
8:50 AM79 °FScattered clouds.7 mph61%29.86 "HgN/A
8:20 AM77 °FScattered clouds.8 mph69%29.86 "HgN/A
7:50 AM75 °FScattered clouds.6 mph78%29.86 "HgN/A
7:20 AM75 °FPassing clouds.7 mph78%29.86 "HgN/A
6:50 AM73 °FPassing clouds.6 mph83%29.86 "HgN/A
6:20 AM73 °FPassing clouds.6 mph83%29.86 "HgN/A
5:50 AM73 °FPassing clouds.6 mph83%29.86 "HgN/A
5:20 AM73 °FPassing clouds.5 mph83%29.83 "HgN/A
Weather by CustomWeather, © 2015

See weather overviewHow to use our weather pages